Location: Unspecified
(48.7670°N, 0.0000°E)
Time: 00:54:19
(UTC+00:00)

Altair - Pass Details

Date: 18 June 2019
Orbit: 1501 x 1683 km, 47.2° (Epoch: 19 July)

Event Time Altitude Azimuth Distance (km) Brightness Sun altitude
Rises 22:09:23 0° 248° (WSW) 4,751 10.1 -13.6°
Reaches altitude 10° 22:12:25 10° 247° (WSW) 3,792 9.6 -13.8°
Maximum altitude 22:22:05 75° 164° (SSE) 1,683 7.5 -14.5°
Drops below altitude 10° 22:32:07 10° 82° (E) 3,927 9.5 -15.1°
Sets 22:35:18 0° 81° (E) 4,927 10.0 -15.3°
